Regional Weather Roundup
Issued by NWS Kansas City/Pleasant Hill, MO

Home | Current Version | Previous Version | Graphics & Text | Print | Product List | Glossary Off
Versions: 1 2 3 4 5 6 7 8 9 10 11 12 13 14 15 16 17 18 19 20 21 22 23 24 25 26 27 28 29 30 31 32 33 34 35 36 37 38 39 40 41 42 43 44 45 46 47 48 49 50

000
ASUS43 KEAX 010810
RWREAX

WEATHER ROUNDUP FOR EASTERN KANSAS AND NORTHWEST MISSOURI
NATIONAL WEATHER SERVICE KANSAS CITY/PLEASANT HILL MO
300 AM CDT FRI AUG 01 2014

KSZ040-057-103>105-MOZ028-029-037-043-010900-
...KANSAS CITY METROPOLITAN AREA...

CITY           SKY/WX    TMP DP  RH WIND       PRES   REMARKS
K.C. INTL      CLOUDY    68  60  75 NW3       30.08R
K.C. DOWNTOWN  CLOUDY    72  59  63 NE3       30.06R
LEES SUMMIT    CLEAR     69  58  67 SE5       30.07R
OLATHE - IXD   MOCLDY    65  60  84 SE5       30.07S
OLATHE - OJC   PTCLDY    65  59  81 CALM      30.06R
LAWRENCE       MOCLDY    65  60  84 E3        30.05S

$$

MOZ001>008-011>017-020>025-030>033-038>040-044>046-053-054-010900-
...NORTHERN AND CENTRAL MISSOURI...

CITY           SKY/WX    TMP DP  RH WIND       PRES   REMARKS
ST. JOSEPH     CLOUDY    67  62  84 S5        30.07F
MOSBY          DRIZZLE   63  61  94 CALM      30.07R
WHITEMAN AFB   MOCLDY    65  50  59 CALM      30.06S
CLINTON        CLEAR     61  59  94 CALM      30.06S
SEDALIA        PTCLDY    63  58  83 CALM      30.07S
WARSAW         NOT AVBL
MARSHALL       MOCLDY    66  63  88 CALM      30.07S
CHILLICOTHE      N/A     66  61  84 CALM      30.08R
MOBERLY        CLEAR     61  55  82 CALM      30.07S
KIRKSVILLE     CLOUDY    64  60  87 CALM      30.08R

$$

MOZ041-047>049-056>058-063>065-088>090-097-010900-
...EASTERN AND SOUTHERN MISSOURI...

CITY           SKY/WX    TMP DP  RH WIND       PRES   REMARKS
ST. LOUIS INTL CLEAR     72  63  73 CALM      30.07R
SPIRIT OF STL  CLEAR     64  61  90 CALM      30.05S
COLUMBIA       CLEAR     66  58  75 E7        30.06S
JEFFERSON CITY CLEAR     63  59  87 SE5       30.05R
MEXICO         CLEAR    N/A N/A N/A CALM      30.06S
HANNIBAL       PTCLDY    63  59  88 CALM      30.07S
ROLLA          CLEAR     64  62  93 SW8       30.06S
LEBANON        CLEAR     63  61  94 CALM      30.09S
OSAGE BEACH    CLEAR     64  59  82 CALM      30.07R
SPRINGFIELD    FOG       63  62  97 SW5       30.08S VSB 1/2
BRANSON        MOCLDY    63  61  94 CALM      30.10S FOG
NEVADA         CLEAR     63  63 100 CALM      30.08R
JOPLIN         CLEAR     62  62 100 S3        30.08S
WEST PLAINS    FOG       60  59  96 CALM      30.10S VSB 1/2

$$

IAZ060-094-KSZ022-034>040-054-083-096-NEZ052-066-093-010900-
...KANSAS...SOUTHEAST NEBRASKA AND IOWA...

CITY           SKY/WX    TMP DP  RH WIND       PRES   REMARKS
TOPEKA         PTCLDY    67  60  78 CALM      30.05S
MANHATTAN      PTCLDY    67  59  75 SW8       30.04S
EMPORIA        CLEAR     61  58  90 SW8       30.06S
CHANUTE        CLEAR     67  64  90 SW7       30.06F
WICHITA        PTCLDY    64  61  90 SW6       30.08S
OMAHA          CLOUDY    68  63  84 E8        30.06F
LINCOLN        PTCLDY    69  58  67 SE10      30.04S
FALLS CITY     CLOUDY    66  61  84 E6        30.06S
LAMONI         MOCLDY    64  61  90 W5        30.08R
DES MOINES     PTCLDY    64  60  87 CALM      30.06R

$$




USA.gov is the U.S. government's official web portal to all federal, state and local government web resources and services.